Guantanamo Bay NAS, Cuba

10:43 PM CST on November 23, 2017 (GMT -0500)
Guantanamo Bay Naval Air Station

Weather History for MUGM - July, 2017

Change the Weather History Date:

Monday, July 17, 2017

  Actual Average Record
Temperature  
Mean Temperature 83 °F -  
Max Temperature 91 °F 87 °F 95 °F (2006)
Min Temperature 75 °F 75 °F 73 °F (2012)
Cooling Degree Days 18    
Growing Degree Days 33 (Base 50)    
Moisture  
Dew Point 76 °F    
Average Humidity 77    
Maximum Humidity 94    
Minimum Humidity 63    
Precipitation  
Precipitation 0.00 in - - ()
Sea Level Pressure  
Sea Level Pressure 30.00 in    
Wind  
Wind Speed 8 mph ()    
Max Wind Speed 15 mph    
Max Gust Speed -    
Visibility 6.2 miles    
Events      
Averages and records for this station are not official NWS values.
T = Trace of Precipitation, MM = Missing Value Source: Averaged Metar Reports

Daily Weather History Graph

Daily Weather History Graph

Search for Another Location

Airport or City:

Trip Planner

Search our weather history database for the weather conditions in past years. The results will help you decide how hot, cold, wet, or windy it might be!

Date:

Astronomy

Jul. 17, 2017 Rise Set
Actual Time 6:31 AM CDT 7:42 PM CDT
Civil Twilight 6:06 AM CDT 8:06 PM CDT
Nautical Twilight 5:38 AM CDT 8:35 PM CDT
Astronomical Twilight 5:09 AM CDT 9:04 PM CDT
Moon 1:08 AM CDT (7/17) 1:57 PM CDT (7/17)
Length of Visible Light 13h 59m
Length of Day
13h 11m
Last Quarter, 40% of the Moon is Illuminated
Jul 17
Last Quarter
Jul 23
New
Jul 30
First Quarter
Aug 7
Full
Aug 14
Last Quarter

Hourly Weather History & Observations

Time (CDT) Temp. Heat Index Dew Point Humidity Pressure Visibility Wind Dir Wind Speed Gust Speed Precip Events Conditions
12:56 AM 79.0 °F - 72.0 °F 79% 30.00 in 6.2 mi NNW 5.8 mph - N/A   Scattered Clouds
1:56 AM 78.1 °F - 73.0 °F 84% 29.99 in 6.2 mi North 9.2 mph - N/A   Mostly Cloudy
2:56 AM 77.0 °F - 73.0 °F 88% 29.97 in 6.2 mi North 6.9 mph - N/A   Mostly Cloudy
3:56 AM 77.0 °F - 73.9 °F 90% 29.97 in 6.2 mi NNW 8.1 mph - N/A   Mostly Cloudy
4:56 AM 75.9 °F - 72.0 °F 87% 29.98 in 6.2 mi NNW 8.1 mph - N/A   Mostly Cloudy
5:56 AM 75.0 °F - 73.0 °F 94% 29.99 in 6.2 mi North 10.4 mph - N/A   Mostly Cloudy
6:56 AM 75.0 °F - 73.0 °F 94% 29.99 in 6.2 mi NNW 8.1 mph - N/A   Scattered Clouds
7:56 AM 80.1 °F 84.5 °F 73.9 °F 81% 30.01 in 6.2 mi North 9.2 mph - N/A   Scattered Clouds
8:56 AM 84.0 °F 91.2 °F 73.9 °F 72% 30.01 in 6.2 mi North 8.1 mph - N/A   Partly Cloudy
9:56 AM 87.1 °F 94.5 °F 73.0 °F 63% 30.03 in 6.2 mi Variable 3.5 mph - N/A   Scattered Clouds
10:56 AM 87.1 °F 97.3 °F 75.9 °F 69% 30.03 in 6.2 mi SSE 8.1 mph - N/A   Scattered Clouds
11:56 AM 88.0 °F 101.3 °F 78.1 °F 72% 30.03 in 6.2 mi SE 12.7 mph - N/A   Scattered Clouds
12:56 PM 89.1 °F 103.2 °F 78.1 °F 70% 30.03 in 6.2 mi SE 13.8 mph - N/A   Scattered Clouds
1:56 PM 91.0 °F 104.2 °F 77.0 °F 63% 30.01 in 6.2 mi SE 12.7 mph - N/A   Scattered Clouds
2:56 PM 90.0 °F 104.5 °F 78.1 °F 68% 29.99 in 6.2 mi SSE 13.8 mph - N/A   Scattered Clouds
3:56 PM 90.0 °F 105.8 °F 79.0 °F 70% 29.98 in 6.2 mi SE 15.0 mph - N/A   Scattered Clouds
4:56 PM 89.1 °F 104.4 °F 79.0 °F 72% 29.97 in 6.2 mi SE 13.8 mph - N/A   Scattered Clouds
5:56 PM 88.0 °F 100.2 °F 77.0 °F 70% 29.98 in 6.2 mi SE 12.7 mph - N/A   Scattered Clouds
6:56 PM 87.1 °F 98.8 °F 77.0 °F 72% 29.99 in 6.2 mi ESE 12.7 mph - N/A   Scattered Clouds
7:56 PM 86.0 °F 96.9 °F 77.0 °F 74% 30.01 in 6.2 mi ESE 10.4 mph - N/A   Mostly Cloudy
8:56 PM 86.0 °F 96.9 °F 77.0 °F 74% 30.03 in 6.2 mi ESE 12.7 mph - N/A   Mostly Cloudy
9:56 PM 86.0 °F 99.3 °F 79.0 °F 79% 30.04 in 6.2 mi SE 9.2 mph - N/A   Mostly Cloudy
10:56 PM 84.0 °F 92.6 °F 75.9 °F 76% 30.04 in 6.2 mi North 9.2 mph - N/A   Scattered Clouds
11:56 PM 82.9 °F 90.8 °F 75.9 °F 79% 30.04 in 6.2 mi North 6.9 mph - N/A   Scattered Clouds